Location: Newark
(38.4486°N, 122.7047°W)
Time: 14:56:13
(UTC+00:00)

X-37B - Visible Passes

Search period start: 29 September 2020 00:00
Search period end: 09 October 2020 00:00
Orbit: 386 x 387 km, 45.0° (Epoch: 18 September)

Date Brightness Start Highest point End Pass type
(mag) Time Alt. Az. Time Alt. Az. Time Alt. Az.
01 Oct 2.0 03:08:49 10° SSW 03:11:04 24° SSE 03:11:04 24° SSE visible
02 Oct 2.3 03:46:10 10° WSW 03:47:56 31° WSW 03:47:56 31° WSW visible
03 Oct 0.9 02:47:44 10° SW 02:50:48 47° SSE 02:52:22 24° E visible
03 Oct 4.2 04:24:33 10° W 04:24:39 11° W 04:24:39 11° W visible
04 Oct 1.1 03:25:42 10° W 03:28:49 51° NNW 03:28:57 51° N visible
05 Oct 0.6 02:27:02 10° WSW 02:30:12 89° NW 02:33:09 12° ENE visible
05 Oct 3.5 04:04:19 10° WNW 04:05:26 17° WNW 04:05:26 17° WNW visible
06 Oct 1.9 03:05:25 10° W 03:08:22 34° NNW 03:09:32 25° NNE visible
07 Oct 2.9 03:44:05 10° WNW 03:45:52 21° NNW 03:45:52 21° NNW visible
08 Oct 2.2 02:45:12 10° WNW 02:47:58 27° N 02:49:52 16° NE visible
